| time (UTC) | temp C | wind direction | speed KPH | gust KPH | rain 1hr cm | rain 24hr cm | rain mn cm | humidity % | barometer mb |
| 20260505070952 | -17 | 166 | 0.0 | 0.0 | 0.00 | 0.00 | 0.00 | 72 | 1003.9 |
| 20260505070452 | -17 | 166 | 0.0 | 0.0 | 0.00 | 0.00 | 0.00 | 72 | 1004.0 |
| 20260505065951 | -17 | 166 | 0.0 | 0.0 | 0.00 | 0.00 | 0.00 | 71 | 1003.7 |
| 20260505065451 | -17 | 166 | 0.0 | 0.0 | 0.00 | 0.00 | 0.00 | 71 | 1003.9 |
| 20260505064951 | -17 | 166 | 0.0 | 0.0 | 0.00 | 0.00 | 0.00 | 71 | 1004.0 |
| 20260505064450 | -17 | 166 | 0.0 | 0.0 | 0.00 | 0.00 | 0.00 | 70 | 1003.9 |
| 20260505063950 | -17 | 166 | 0.0 | 0.0 | 0.00 | 0.00 | 0.00 | 70 | 1004.0 |
| 20260505063450 | -17 | 166 | 0.0 | 0.0 | 0.00 | 0.00 | 0.00 | 69 | 1004.0 |
| 20260505062949 | -17 | 166 | 0.0 | 0.0 | 0.00 | 0.00 | 0.00 | 69 | 1003.7 |
| 20260505062444 | -17 | 166 | 0.0 | 0.0 | 0.00 | 0.00 | 0.00 | 69 | 1003.8 |
| 20260505061943 | -17 | 166 | 0.0 | 0.0 | 0.00 | 0.00 | 0.00 | 69 | 1004.1 |
| 20260505061443 | -17 | 166 | 0.0 | 0.0 | 0.00 | 0.00 | 0.00 | 68 | 1003.8 |
| 20260505060943 | -17 | 166 | 0.0 | 0.0 | 0.00 | 0.00 | 0.00 | 67 | 1004.0 |
| 20260505060443 | -17 | 166 | 0.0 | 0.0 | 0.00 | 0.00 | 0.00 | 67 | 1003.9 |
| 20260505055943 | -17 | 166 | 0.0 | 0.0 | 0.00 | 0.00 | 0.00 | 67 | 1003.8 |
| 20260505055442 | -17 | 166 | 0.0 | 0.0 | 0.00 | 0.00 | 0.00 | 66 | 1003.9 |
| 20260505054942 | -17 | 166 | 0.0 | 0.0 | 0.00 | 0.00 | 0.00 | 66 | 1003.9 |
| 20260505054442 | -17 | 160 | 0.0 | 0.0 | 0.00 | 0.00 | 0.00 | 66 | 1003.9 |
| 20260505053941 | -17 | 160 | 0.0 | 0.0 | 0.00 | 0.00 | 0.00 | 66 | 1003.8 |
| 20260505053441 | -17 | 160 | 0.0 | 0.0 | 0.00 | 0.00 | 0.00 | 66 | 1004.0 |
| 20260505052941 | -17 | 160 | 0.0 | 0.0 | 0.00 | 0.00 | 0.00 | 66 | 1004.0 |
| 20260505052440 | -17 | 160 | 0.0 | 0.0 | 0.00 | 0.00 | 0.00 | 65 | 1003.9 |
| 20260505051940 | -17 | 160 | 0.0 | 0.0 | 0.00 | 0.00 | 0.00 | 65 | 1004.0 |
| 20260505051440 | -17 | 152 | 0.0 | 0.0 | 0.00 | 0.00 | 0.00 | 65 | 1004.0 |
| 20260505050939 | -17 | 165 | 0.0 | 0.0 | 0.00 | 0.00 | 0.00 | 65 | 1004.0 |
| 20260505050439 | -17 | 165 | 0.0 | 0.0 | 0.00 | 0.00 | 0.00 | 64 | 1003.9 |
| 20260505041436 | -17 | 134 | 0.0 | 0.0 | 0.00 | 0.00 | 0.00 | 61 | 1004.0 |
| 20260505040935 | -17 | 150 | 0.0 | 0.0 | 0.00 | 0.00 | 0.00 | 61 | 1003.9 |
| 20260505040435 | -17 | 150 | 0.0 | 0.0 | 0.00 | 0.00 | 0.00 | 61 | 1004.0 |
| 20260505035935 | -17 | 150 | 0.0 | 0.0 | 0.00 | 0.00 | 0.00 | 60 | 1004.1 |
| 20260505035434 | -17 | 155 | 0.0 | 0.0 | 0.00 | 0.00 | 0.00 | 60 | 1004.1 |
| 20260505034934 | -17 | 155 | 0.0 | 0.0 | 0.00 | 0.00 | 0.00 | 60 | 1004.0 |
| 20260505034434 | -17 | 155 | 0.0 | 0.0 | 0.00 | 0.00 | 0.00 | 59 | 1003.8 |
| 20260505033933 | -17 | 157 | 0.0 | 0.0 | 0.00 | 0.00 | 0.00 | 59 | 1003.9 |
| 20260505033433 | -17 | 140 | 0.0 | 0.0 | 0.00 | 0.00 | 0.00 | 58 | 1004.0 |
| 20260505032932 | -17 | 158 | 0.0 | 1.6 | 0.00 | 0.00 | 0.00 | 58 | 1003.9 |
| 20260505032432 | -17 | 144 | 0.0 | 1.6 | 0.00 | 0.00 | 0.00 | 57 | 1004.0 |
| 20260505031932 | -17 | 174 | 0.0 | 0.0 | 0.00 | 0.00 | 0.00 | 56 | 1003.8 |
| 20260505031431 | -17 | 161 | 0.0 | 0.0 | 0.00 | 0.00 | 0.00 | 55 | 1004.0 |
| 20260505030931 | -17 | 161 | 0.0 | 1.6 | 0.00 | 0.00 | 0.00 | 54 | 1004.1 |
| 20260505030430 | -17 | 162 | 0.0 | 0.0 | 0.00 | 0.00 | 0.00 | 53 | 1004.0 |
| 20260505025930 | -17 | 162 | 0.0 | 0.0 | 0.00 | 0.00 | 0.00 | 52 | 1004.0 |
| 20260505025430 | -17 | 167 | 1.6 | 1.6 | 0.00 | 0.00 | 0.00 | 52 | 1003.9 |
| 20260505024929 | -17 | 141 | 0.0 | 0.0 | 0.00 | 0.00 | 0.00 | 50 | 1003.8 |
| 20260505024429 | -17 | 156 | 0.0 | 0.0 | 0.00 | 0.00 | 0.00 | 50 | 1004.0 |
| 20260505023929 | -17 | 140 | 0.0 | 0.0 | 0.00 | 0.00 | 0.00 | 49 | 1003.8 |
| 20260505023428 | -17 | 144 | 0.0 | 0.0 | 0.00 | 0.00 | 0.00 | 48 | 1004.0 |
| 20260505022928 | -17 | 179 | 1.6 | 3.2 | 0.00 | 0.00 | 0.00 | 47 | 1003.7 |
| 20260505022427 | -17 | 148 | 0.0 | 0.0 | 0.00 | 0.00 | 0.00 | 47 | 1003.8 |
| 20260505021927 | -17 | 149 | 0.0 | 0.0 | 0.00 | 0.00 | 0.00 | 46 | 1003.8 |
| 20260505021427 | -17 | 149 | 0.0 | 0.0 | 0.00 | 0.00 | 0.00 | 46 | 1003.6 |
| 20260505020926 | -17 | 149 | 0.0 | 0.0 | 0.00 | 0.00 | 0.00 | 45 | 1003.7 |
| 20260505020426 | -17 | 149 | 0.0 | 0.0 | 0.00 | 0.00 | 0.00 | 45 | 1003.5 |
| 20260505015926 | -17 | 149 | 0.0 | 0.0 | 0.00 | 0.00 | 0.00 | 44 | 1003.4 |
| 20260505015425 | -17 | 149 | 0.0 | 0.0 | 0.00 | 0.00 | 0.00 | 45 | 1003.2 |
| 20260505014925 | -17 | 150 | 0.0 | 0.0 | 0.00 | 0.00 | 0.00 | 44 | 1003.3 |
| 20260505014425 | -17 | 150 | 0.0 | 0.0 | 0.00 | 0.00 | 0.00 | 44 | 1003.2 |
| 20260505013924 | -17 | 150 | 0.0 | 0.0 | 0.00 | 0.00 | 0.00 | 43 | 1003.1 |
| 20260505013424 | -17 | 167 | 0.0 | 0.0 | 0.00 | 0.00 | 0.00 | 42 | 1003.2 |
| 20260505012924 | -17 | 171 | 0.0 | 0.0 | 0.00 | 0.00 | 0.00 | 43 | 1003.0 |
| 20260505012423 | -17 | 143 | 0.0 | 0.0 | 0.00 | 0.00 | 0.00 | 43 | 1003.0 |
| 20260505011923 | -17 | 169 | 0.0 | 0.0 | 0.00 | 0.00 | 0.00 | 42 | 1003.1 |
| 20260505011423 | -17 | 169 | 0.0 | 0.0 | 0.00 | 0.00 | 0.00 | 41 | 1003.0 |
| 20260505010922 | -17 | 169 | 0.0 | 0.0 | 0.00 | 0.00 | 0.00 | 41 | 1002.9 |
| 20260505010422 | -17 | 169 | 0.0 | 0.0 | 0.00 | 0.00 | 0.00 | 41 | 1002.8 |
| 20260505005917 | -17 | 169 | 0.0 | 0.0 | 0.00 | 0.00 | 0.00 | 41 | 1002.7 |
| 20260505005416 | -17 | 169 | 0.0 | 0.0 | 0.00 | 0.00 | 0.00 | 41 | 1002.6 |
| 20260505004916 | -17 | 165 | 0.0 | 0.0 | 0.00 | 0.00 | 0.00 | 40 | 1002.5 |
| 20260505004416 | -17 | 167 | 0.0 | 0.0 | 0.00 | 0.00 | 0.00 | 39 | 1002.3 |
| 20260505003915 | -17 | 168 | 0.0 | 0.0 | 0.00 | 0.00 | 0.00 | 40 | 1002.5 |
| 20260505003415 | -17 | 126 | 0.0 | 0.0 | 0.00 | 0.00 | 0.00 | 40 | 1002.3 |
| 20260505002915 | -17 | 126 | 0.0 | 0.0 | 0.00 | 0.00 | 0.00 | 39 | 1002.3 |
| 20260505002415 | -17 | 126 | 1.6 | 1.6 | 0.00 | 0.00 | 0.00 | 38 | 1002.4 |
| 20260505001914 | -17 | 125 | 0.0 | 0.0 | 0.00 | 0.00 | 0.00 | 39 | 1002.3 |
| 20260505001414 | -17 | 125 | 0.0 | 0.0 | 0.00 | 0.00 | 0.00 | 39 | 1002.0 |
| 20260505000914 | -17 | 125 | 0.0 | 0.0 | 0.00 | 0.00 | 0.00 | 38 | 1002.0 |
| 20260505000413 | -17 | 125 | 0.0 | 0.0 | 0.00 | 0.00 | 0.00 | 39 | 1002.3 |
| 20260504235913 | -17 | 125 | 0.0 | 0.0 | 0.00 | 0.00 | 0.00 | 38 | 1002.0 |
| 20260504235412 | -17 | 125 | 0.0 | 0.0 | 0.00 | 0.00 | 0.00 | 37 | 1002.0 |
| 20260504234912 | -17 | 125 | 0.0 | 0.0 | 0.00 | 0.00 | 0.00 | 36 | 1002.1 |
| 20260504234412 | -17 | 125 | 0.0 | 0.0 | 0.00 | 0.00 | 0.00 | 36 | 1001.9 |
| 20260504233911 | -17 | 125 | 0.0 | 0.0 | 0.00 | 0.00 | 0.00 | 34 | 1001.9 |
| 20260504233411 | -17 | 125 | 0.0 | 0.0 | 0.00 | 0.00 | 0.00 | 34 | 1001.8 |
| 20260504232911 | -17 | 125 | 0.0 | 0.0 | 0.00 | 0.00 | 0.00 | 34 | 1002.0 |
| 20260504232410 | -17 | 125 | 0.0 | 0.0 | 0.00 | 0.00 | 0.00 | 33 | 1001.9 |
| 20260504231910 | -17 | 167 | 0.0 | 0.0 | 0.00 | 0.00 | 0.00 | 33 | 1001.8 |
| 20260504231410 | -17 | 167 | 0.0 | 0.0 | 0.00 | 0.00 | 0.00 | 33 | 1001.8 |
| 20260504230909 | -17 | 167 | 0.0 | 0.0 | 0.00 | 0.00 | 0.00 | 32 | 1001.8 |
| 20260504230409 | -17 | 155 | 0.0 | 0.0 | 0.00 | 0.00 | 0.00 | 33 | 1001.9 |
| 20260504225909 | -17 | 155 | 0.0 | 0.0 | 0.00 | 0.00 | 0.00 | 31 | 1001.6 |
| 20260504225409 | -17 | 155 | 0.0 | 0.0 | 0.00 | 0.00 | 0.00 | 30 | 1001.7 |
| 20260504224908 | -17 | 157 | 0.0 | 0.0 | 0.00 | 0.00 | 0.00 | 31 | 1001.8 |
| 20260504224408 | -17 | 156 | 0.0 | 0.0 | 0.00 | 0.00 | 0.00 | 30 | 1001.7 |
| 20260504223907 | -17 | 188 | 0.0 | 0.0 | 0.00 | 0.00 | 0.00 | 31 | 1001.8 |
| 20260504223407 | -17 | 157 | 1.6 | 1.6 | 0.00 | 0.00 | 0.00 | 31 | 1001.7 |
| 20260504222907 | -17 | 165 | 0.0 | 0.0 | 0.00 | 0.00 | 0.00 | 31 | 1001.8 |
| 20260504222406 | -17 | 159 | 1.6 | 3.2 | 0.00 | 0.00 | 0.00 | 29 | 1001.8 |
| 20260504221906 | -17 | 179 | 0.0 | 0.0 | 0.00 | 0.00 | 0.00 | 30 | 1001.9 |
| 20260504221406 | -17 | 132 | 0.0 | 1.6 | 0.00 | 0.00 | 0.00 | 31 | 1001.8 |
| 20260504220905 | -17 | 162 | 0.0 | 0.0 | 0.00 | 0.00 | 0.00 | 30 | 1001.9 |
| 20260504220405 | -17 | 162 | 0.0 | 0.0 | 0.00 | 0.00 | 0.00 | 30 | 1001.9 |
| 20260504215905 | -17 | 158 | 0.0 | 0.0 | 0.00 | 0.00 | 0.00 | 31 | 1001.9 |
| 20260504215405 | -17 | 158 | 0.0 | 0.0 | 0.00 | 0.00 | 0.00 | 31 | 1001.7 |
| 20260504214904 | -17 | 158 | 0.0 | 1.6 | 0.00 | 0.00 | 0.00 | 31 | 1001.9 |
| 20260504214404 | -17 | 186 | 0.0 | 1.6 | 0.00 | 0.00 | 0.00 | 31 | 1001.9 |
| 20260504213903 | -17 | 195 | 1.6 | 1.6 | 0.00 | 0.00 | 0.00 | 31 | 1001.9 |
| 20260504213403 | -17 | 181 | 1.6 | 3.2 | 0.00 | 0.00 | 0.00 | 31 | 1001.9 |
| 20260504212903 | -17 | 159 | 1.6 | 3.2 | 0.00 | 0.00 | 0.00 | 29 | 1001.8 |
| 20260504212402 | -17 | 192 | 0.0 | 0.0 | 0.00 | 0.00 | 0.00 | 31 | 1002.1 |
| 20260504211902 | -17 | 172 | 1.6 | 1.6 | 0.00 | 0.00 | 0.00 | 30 | 1002.1 |
| 20260504211402 | -17 | 167 | 3.2 | 3.2 | 0.00 | 0.00 | 0.00 | 30 | 1002.0 |
| 20260504210901 | -17 | 176 | 3.2 | 3.2 | 0.00 | 0.00 | 0.00 | 30 | 1002.0 |
| 20260504210401 | -17 | 194 | 1.6 | 1.6 | 0.00 | 0.00 | 0.00 | 30 | 1001.9 |
| 20260504205901 | -17 | 193 | 0.0 | 1.6 | 0.00 | 0.00 | 0.00 | 29 | 1002.0 |
| 20260504205400 | -17 | 160 | 1.6 | 1.6 | 0.00 | 0.00 | 0.00 | 29 | 1001.8 |
| 20260504204900 | -17 | 169 | 0.0 | 0.0 | 0.00 | 0.00 | 0.00 | 30 | 1001.8 |
| 20260504204400 | -17 | 125 | 0.0 | 0.0 | 0.00 | 0.00 | 0.00 | 30 | 1002.1 |
| 20260504203900 | -17 | 165 | 0.0 | 0.0 | 0.00 | 0.00 | 0.00 | 30 | 1002.2 |
| 20260504203359 | -17 | 160 | 1.6 | 3.2 | 0.00 | 0.00 | 0.00 | 29 | 1002.3 |
| 20260504202859 | -17 | 133 | 0.0 | 1.6 | 0.00 | 0.00 | 0.00 | 30 | 1002.2 |
| 20260504202358 | -17 | 188 | 3.2 | 3.2 | 0.00 | 0.00 | 0.00 | 29 | 1002.3 |
| 20260504201858 | -17 | 177 | 1.6 | 1.6 | 0.00 | 0.00 | 0.00 | 29 | 1002.2 |
| 20260504201358 | -17 | 155 | 3.2 | 3.2 | 0.00 | 0.00 | 0.00 | 28 | 1002.3 |
| 20260504200857 | -17 | 198 | 0.0 | 0.0 | 0.00 | 0.00 | 0.00 | 28 | 1002.3 |
| 20260504200356 | -17 | 154 | 6.4 | 11.3 | 0.00 | 0.00 | 0.00 | 28 | 1002.5 |
| 20260504195856 | -17 | 189 | 1.6 | 3.2 | 0.00 | 0.00 | 0.00 | 29 | 1002.4 |
| 20260504195355 | -17 | 192 | 0.0 | 1.6 | 0.00 | 0.00 | 0.00 | 28 | 1002.5 |
| 20260504194855 | -17 | 141 | 1.6 | 1.6 | 0.00 | 0.00 | 0.00 | 28 | 1002.7 |
| 20260504194354 | -17 | 189 | 0.0 | 0.0 | 0.00 | 0.00 | 0.00 | 29 | 1002.8 |
| 20260504193853 | -17 | 202 | 1.6 | 1.6 | 0.00 | 0.00 | 0.00 | 28 | 1002.6 |
| 20260504193352 | -17 | 186 | 3.2 | 4.8 | 0.00 | 0.00 | 0.00 | 29 | 1002.7 |
| 20260504192852 | -17 | 184 | 0.0 | 0.0 | 0.00 | 0.00 | 0.00 | 29 | 1002.9 |
| 20260504192352 | -17 | 90 | 0.0 | 0.0 | 0.00 | 0.00 | 0.00 | 30 | 1002.9 |
| 20260504191851 | -17 | 180 | 3.2 | 4.8 | 0.00 | 0.00 | 0.00 | 29 | 1003.1 |
| 20260504191351 | -17 | 155 | 0.0 | 0.0 | 0.00 | 0.00 | 0.00 | 29 | 1003.2 |
| 20260504190851 | -17 | 185 | 0.0 | 1.6 | 0.00 | 0.00 | 0.00 | 28 | 1003.0 |
| 20260504190350 | -17 | 225 | 0.0 | 1.6 | 0.00 | 0.00 | 0.00 | 30 | 1003.2 |
| 20260504185850 | -17 | 172 | 1.6 | 1.6 | 0.00 | 0.00 | 0.00 | 29 | 1003.2 |
| 20260504185350 | -17 | 186 | 0.0 | 1.6 | 0.00 | 0.00 | 0.00 | 31 | 1003.0 |
| 20260504184849 | -17 | 268 | 1.6 | 1.6 | 0.00 | 0.00 | 0.00 | 30 | 1003.3 |
| 20260504184349 | -17 | 173 | 0.0 | 1.6 | 0.00 | 0.00 | 0.00 | 31 | 1003.2 |
| 20260504183849 | -17 | 158 | 1.6 | 3.2 | 0.00 | 0.00 | 0.00 | 31 | 1003.2 |
| 20260504183348 | -17 | 131 | 0.0 | 1.6 | 0.00 | 0.00 | 0.00 | 30 | 1003.3 |
| 20260504182848 | -17 | 231 | 0.0 | 1.6 | 0.00 | 0.00 | 0.00 | 28 | 1003.8 |
| 20260504182343 | -17 | 177 | 0.0 | 0.0 | 0.00 | 0.00 | 0.00 | 29 | 1003.7 |
| 20260504181842 | -17 | 200 | 3.2 | 3.2 | 0.00 | 0.00 | 0.00 | 30 | 1003.7 |
| 20260504181342 | -17 | 192 | 1.6 | 1.6 | 0.00 | 0.00 | 0.00 | 31 | 1003.6 |
| 20260504180842 | -17 | 171 | 3.2 | 4.8 | 0.00 | 0.00 | 0.00 | 31 | 1003.5 |
| 20260504180342 | -17 | 195 | 0.0 | 1.6 | 0.00 | 0.00 | 0.00 | 33 | 1003.7 |
| 20260504175841 | -17 | 135 | 0.0 | 0.0 | 0.00 | 0.00 | 0.00 | 33 | 1003.7 |
| 20260504175341 | -17 | 167 | 1.6 | 1.6 | 0.00 | 0.00 | 0.00 | 33 | 1003.8 |
| 20260504174841 | -17 | 201 | 0.0 | 0.0 | 0.00 | 0.00 | 0.00 | 34 | 1004.0 |
| 20260504174340 | -17 | 171 | 1.6 | 1.6 | 0.00 | 0.00 | 0.00 | 34 | 1003.8 |
| 20260504173840 | -17 | 230 | 1.6 | 1.6 | 0.00 | 0.00 | 0.00 | 32 | 1003.8 |
| 20260504173340 | -17 | 148 | 0.0 | 0.0 | 0.00 | 0.00 | 0.00 | 36 | 1003.7 |
| 20260504172840 | -17 | 177 | 1.6 | 3.2 | 0.00 | 0.00 | 0.00 | 35 | 1003.9 |
| 20260504172339 | -17 | 172 | 1.6 | 3.2 | 0.00 | 0.00 | 0.00 | 33 | 1003.9 |
| 20260504171839 | -17 | 92 | 0.0 | 1.6 | 0.00 | 0.00 | 0.00 | 32 | 1004.2 |
| 20260504171339 | -17 | 188 | 3.2 | 3.2 | 0.00 | 0.00 | 0.00 | 37 | 1004.2 |
| 20260504170838 | -17 | 131 | 0.0 | 1.6 | 0.00 | 0.00 | 0.00 | 36 | 1004.4 |
| 20260504170338 | -17 | 134 | 0.0 | 0.0 | 0.00 | 0.00 | 0.00 | 39 | 1004.4 |
| 20260504160333 | -17 | 16 | 1.6 | 1.6 | 0.00 | 0.00 | 0.00 | 48 | 1005.3 |
| 20260504150829 | -17 | 155 | 0.0 | 0.0 | 0.00 | 0.00 | 0.00 | 55 | 1005.5 |
| 20260504150327 | -17 | 138 | 1.6 | 1.6 | 0.00 | 0.00 | 0.00 | 54 | 1005.5 |
| 20260504141324 | -17 | 193 | 0.0 | 0.0 | 0.00 | 0.00 | 0.00 | 62 | 1005.8 |
| 20260504140824 | -17 | 174 | 0.0 | 0.0 | 0.00 | 0.00 | 0.00 | 63 | 1005.6 |
| 20260504140324 | -17 | 169 | 0.0 | 0.0 | 0.00 | 0.00 | 0.00 | 64 | 1005.7 |
| 20260504130820 | -17 | 110 | 0.0 | 0.0 | 0.00 | 0.00 | 0.00 | 73 | 1006.0 |
| 20260504130320 | -17 | 110 | 0.0 | 0.0 | 0.00 | 0.00 | 0.00 | 75 | 1006.0 |
| 20260504120316 | -17 | 110 | 0.0 | 0.0 | 0.00 | 0.00 | 0.00 | 86 | 1006.4 |
| 20260504110312 | -17 | 110 | 0.0 | 0.0 | 0.00 | 0.00 | 0.00 | 89 | 1006.3 |
| 20260504100308 | -17 | 110 | 0.0 | 0.0 | 0.00 | 0.00 | 0.00 | 88 | 1006.0 |
| 20260504081802 | -17 | 110 | 0.0 | 0.0 | 0.00 | 0.00 | 0.00 | 82 | 1005.9 |
| 20260504081301 | -17 | 110 | 0.0 | 0.0 | 0.00 | 0.00 | 0.00 | 82 | 1005.9 |
| 20260504080801 | -17 | 110 | 0.0 | 0.0 | 0.00 | 0.00 | 0.00 | 82 | 1006.0 |
| 20260504080300 | -17 | 110 | 0.0 | 0.0 | 0.00 | 0.00 | 0.00 | 81 | 1005.9 |